LAPAN-TUBSAT

Last updated on Fri Jul 10 2026 00:02:49 GMT+0000 (Coordinated Universal Time)

1 29709U 07001A 26190.27373132 .00000206 00000+0 30209-4 0 9996 2 29709 98.1353 189.9965 0013423 111.1811 249.0839 14.85971482 54432
UTC large
Height (km)
Speed (km/s)
/
Latitude / Longitude
Inclination (degrees)
Orbital Period (minutes)
Azimuth
Elevation
Range (km)
Doppler Factor

Next 0 passes for location: London (51.5072 / 0.1276)

No passes found over London.
LAPAN-TUBSAT